Location: Banios
(43.0451°N, 0.2335°E)
Time: 13:01:51
(UTC+00:00)

Envisat - Pass Details

Date: 10 December 2021
Orbit: 764 x 766 km, 98.2° (Epoch: 28 January)

Event Time Altitude Azimuth Distance (km) Brightness Sun altitude
Rises 05:08:40 0° 12° (NNE) 3,243 6.3 -23.1°
Reaches altitude 10° 05:10:59 10° 11° (N) 2,312 5.5 -22.7°
Maximum altitude 05:16:05 81° 285° (WNW) 780 2.8 -21.7°
Drops below altitude 10° 05:21:09 10° 199° (SSW) 2,294 5.4 -20.8°
Sets 05:23:26 0° 198° (SSW) 3,216 6.2 -20.4°
